#timestamp,LO_Frequency,Hit,StdDev 
1537336815.4,286046999.3,N
1537336835.2,286046997.8,N
1537336855.0,286046997.8,N
1537336855.9,286046997.8,N
1537336875.8,286046997.5,N
1537336895.6,286046995.3,Y
1537336915.5,286046997.0,P
1537336935.3,286046997.3,N
1537336955.1,286046997.6,N
1537336975.9,286046995.1,Y
1537336995.7,286046998.7,P
1537337015.5,286046999.4,N
1537337035.4,286046996.9,P
1537337055.2,286046995.4,Y
1537337075.1,286046998.7,P
1537337076.0,286046998.7,P
1537337095.8,286046998.9,P
1537337115.6,286046998.1,Y
1537337135.5,286046999.9,P
1537337155.3,286047002.2,P
1537337175.2,286047002.4,N
1537337195.9,286046999.8,N
1537337215.7,286047004.0,N
1537337235.6,286047002.5,N
1537337255.4,286047000.2,N
1537337275.2,286047000.8,N
1537337295.1,286046999.3,N
1537337296.0,286046999.3,N
1537337315.8,286047000.8,N
1537337335.7,286047002.0,N
1537337355.5,286047000.2,N
1537337375.3,286047001.1,N
1537337395.2,286046996.9,N
1537337415.9,286046999.6,N
1537337435.7,286046997.0,N
1537337455.6,286046997.0,N
1537337475.4,286046998.7,N
1537337495.2,286047000.5,N
1537337515.1,286047000.8,N
1537337516.0,286047000.8,N
1537337535.8,286047001.2,N
1537337555.7,286046998.8,N
1537337575.5,286046999.5,N
1537337595.3,286046996.5,N
1537337615.2,286046999.4,N
1537337635.0,286046999.6,N
1537337635.9,286046999.6,N
1537337655.7,286046995.8,N
1537337675.6,286046995.9,N
1537337695.4,286046996.8,N
1537337715.3,286046997.4,N
1537337735.1,286046996.9,N
1537337736.0,286046996.9,N
1537337755.8,286046999.5,N
1537337805.7,286046997.0,E
1537337815.6,286046999.3,N
1537337835.5,286046999.6,P
1537337855.3,286046999.5,P
1537337875.1,286046998.7,Y
1537337895.9,286046998.6,P
1537337915.7,286047000.1,N
1537337935.6,286047002.6,P
1537337955.4,286047001.7,N
1537337975.2,286047004.2,N
1537337995.1,286047004.4,N
1537337996.0,286047004.4,N
1537338015.8,286047001.9,N
1537338035.7,286047000.2,N
1537338055.5,286047000.0,N
1537338075.3,286046999.9,N
1537338095.2,286047002.8,N
1537338115.0,286046998.6,N
1537338115.9,286046998.6,N
1537338135.8,286046998.5,N
1537338155.6,286047000.9,N
1537338175.4,286047000.1,N
1537338195.3,286047000.5,N
1537338215.1,286047000.3,N
1537338235.8,286047000.9,N
1537338255.7,286046998.2,N
1537338275.5,286047002.3,N
1537338295.4,286047000.0,N
1537338315.2,286046999.5,N
1537338335.0,286046997.4,N
1537338335.9,286046997.4,N
1537338355.8,286046997.9,N
1537338375.6,286046996.7,N
1537338395.4,286046997.2,N
1537338415.3,286046995.1,N
1537338435.1,286046995.3,N
1537338455.9,286046997.0,N
1537338475.7,286046996.6,N
1537338495.5,286047000.7,N
1537338515.4,286046997.0,N
1537338535.2,286047001.2,N
1537338555.0,286046999.5,N
1537338555.9,286046999.5,N
1537338575.8,286046996.9,N
1537338595.6,286046998.0,N
1537338615.4,286046997.0,N
1537338635.3,286046999.0,N
1537338655.1,286046997.0,N
1537338675.9,286046997.3,N
1537338695.7,286046997.2,N
1537338715.5,286046996.9,N
1537338735.4,286046997.2,N
1537338755.2,286046995.3,N
1537338775.0,286046995.9,N
1537338776.0,286046995.9,N
1537338795.8,286046995.7,N
1537338815.6,286046997.9,N
1537338835.5,286046995.6,N
1537338855.3,286046995.2,Y
1537338875.1,286046999.6,P
1537338895.9,286046995.0,P
1537338915.7,286046999.6,N
1537338935.6,286046996.7,N
1537338955.4,286046995.0,N
1537338975.2,286046995.4,N
1537338995.1,286046996.4,N
1537338996.0,286046996.4,N
1537339015.8,286046993.4,Y
1537339035.6,286046998.9,P
1537339055.5,286046998.2,N
1537339075.3,286047000.8,N
1537339095.2,286047000.1,N
1537339115.9,286047000.0,N
1537339135.7,286047000.7,N
1537339155.6,286047000.8,N
1537339175.4,286047000.0,N
1537339195.2,286047000.3,N
1537339215.1,286046998.1,N
1537339216.0,286046998.1,N
1537339235.8,286046998.8,N
1537339255.7,286047000.0,N
1537339275.5,286047002.2,N
1537339295.3,286047001.3,N
1537339315.2,286047002.0,N
1537339335.9,286047003.5,N
1537339355.7,286047002.1,N
1537339375.6,286047001.3,N
1537339425.4,286047000.3,E
1537339435.4,286047001.1,N
1537339455.2,286046998.9,P
1537339475.0,286046998.8,N
1537339475.9,286046998.8,N
1537339495.8,286047001.2,N
1537339515.6,286047001.2,N
1537339535.4,286046999.9,N
1537339555.3,286047000.4,N
1537339575.1,286047002.5,N
1537339595.9,286047005.9,Y
1537339615.7,286047005.7,P
1537339635.5,286047001.9,N
1537339655.4,286047002.2,N
1537339675.2,286047001.9,N
1537339695.0,286047003.9,N
1537339695.9,286047003.9,N
1537339715.8,286047005.5,Y
1537339735.6,286046998.3,P
1537339755.5,286046999.4,N
1537339775.3,286046999.1,N
1537339795.1,286046996.8,N
1537339815.9,286046998.3,N
1537339835.7,286046998.0,N
1537339855.5,286046995.6,N
1537339875.4,286046996.4,N
1537339895.2,286046993.6,Y
1537339915.1,286046998.6,P
1537339916.0,286046998.6,P
1537339935.8,286046998.7,P
1537339955.6,286046999.4,Y
1537339975.5,286046996.8,P
1537339995.3,286046999.2,N
1537340015.1,286046999.3,N
1537340035.9,286046998.1,N
1537340055.7,286047002.7,N
1537340075.6,286046999.7,N
1537340095.4,286047002.6,N
1537340115.2,286046999.8,N
1537340135.1,286047001.0,N
1537340136.0,286047001.0,N
1537340155.8,286047000.8,N
1537340175.6,286047001.2,N
1537340195.5,286047000.3,N
1537340215.3,286046998.1,N
1537340235.2,286047002.5,N
1537340255.9,286046999.0,N
1537340275.7,286046996.9,N
1537340295.6,286046997.7,N
1537340315.4,286046997.9,N
1537340335.2,286046997.4,N
1537340355.1,286046996.1,N
1537340356.0,286046996.1,N
1537340375.8,286046995.4,N
1537340395.7,286046998.0,N
